www.pogodaiklimat.ru

Погода и климат >> Архив погоды >> Мали >> Каес


ПОГОДА в Каесе

  • Прогноз погоды в Каесе
  • Монитор погоды в Каесе

АРХИВ ПОГОДЫ в Каесе

Время (UTC), дата Ветер
(напр.,м/с)
 
Видим.   Явления Облачность Т
(С)
Тd
(С)
f
(%)
Тe
(С)
Тes
(С)
Комфортность P
(гПа)
Po
(гПа)
Тmin
(С)
Tmax
(С)
R
(мм)
R24
(мм)
S
(см)
21 17.06 Ю 3 8000 м пыль 8/0
[Ac lent Ci sp]
+40.0 +18.2 28 +43 +43 опасность
перегрева
1010.2 1004.0
00 18.06 Ю 2 8000 м пыль 6/0
[Ac lent Ci sp]
+37.5 +20.4 37 +43 +43 опасность
перегрева
1011.1 1004.9
06 18.06 ЮЗ 4 10 км гроза, ливневой дождь 10/3 900 м
[Cb cap Ac As]
+26.6 +25.0 91 +38 +38 очень
душно
1012.6 1006.4 +26.6 13
09 18.06 ЮЗ 3 10 км {гроза, дождь} 8/0
[Ac As Ci sp]
+30.2 +25.0 74 +44 +47 опасность
перегрева
1013.3 1007.0
12 18.06 СВ 2 10 км 6/0
[Ac trans Ci sp]
+35.4 +23.8 51 +47 +64 опасность
перегрева
1013.1 1006.9 0.0
15 18.06 ЮВ 2 10 км 8/5 900 м
[Cb cap Ac trans Ci sp]
+40.5 +22.1 35 +48 +54 опасность
перегрева
1010.2 1004.1
18 18.06 ЮВ 3 10 км гроза, ливневой дождь 9/5 900 м
[Cb cap Ac As Ci sp]
+34.0 +23.2 53 +44 +45 опасность
перегрева
1010.2 1004.0 +42.0 0.0
21 18.06 СЗ 1 10 км зарница {гроза, дождь} 8/1 1200 м
[Cb cap Ac As]
+31.6 +22.0 57 +40 +40 очень
душно
1011.6 1005.3
00 19.06 З 2 10 км {гроза, дождь} 6/0
[Ci sp]
+31.0 +22.9 62 +41 +41 опасность
перегрева
1011.7 1005.4
03 19.06 СЗ 1 10 км 6/0
[Ci sp]
+30.4 +24.6 71 +43 +43 опасность
перегрева
1010.8 1004.6
06 19.06 ЮЗ 3 10 км 4/0
[Ac lent Ci sp]
+31.4 +22.8 60 +41 +41 опасность
перегрева
1012.3 1006.0 +26.5 0.0
09 19.06 ЮЗ 6 10 км 8/0
[Ac lent Ci sp]
+32.6 +22.5 55 +42 +43 опасность
перегрева
1014.1 1007.8
12 19.06 З 6 10 км 6/0
[Ci sp]
+37.4 +19.9 36 +43 +50 опасность
перегрева
1013.1 1006.8
15 19.06 З 4 10 км 6/0
[Ci sp]
+41.0 +20.2 30 +46 +55 опасность
перегрева
1010.7 1004.5
18 19.06 З 4 10 км 5/0
[Ci sp]
+41.7 +20.4 30 +47 +48 опасность
перегрева
1008.8 1002.6 +42.5
21 19.06 ЮЗ 3 10 км 8/0
[Ac lent Ci sp]
+37.8 +19.8 35 +43 +43 опасность
перегрева
1009.4 1003.3
00 20.06 Ю 2 10 км 9/0
[Ac lent Ci sp]
+36.8 +20.6 39 +43 +43 опасность
перегрева
1011.1 1004.9
03 20.06 ЮЗ 4 10 км 8/0
[Ac lent Ci sp]
+33.3 +20.8 48 +40 +40 очень
душно
1010.6 1004.4
06 20.06 ЮЗ 7 8000 м пыль 8/0
[Ci sp]
+31.4 +21.7 56 +40 +40 очень
душно
1010.3 1004.2 +31.4
09 20.06 ЮЗ 6 10 км 8/0
[Ci sp]
+33.5 +21.4 49 +41 +44 опасность
перегрева
1012.0 1005.8
12 20.06 З 4 10 км 5/0
[Ci sp]
+37.8 +19.6 35 +43 +55 опасность
перегрева
1011.7 1005.5
15 20.06 С 2 10 км 4/0
[Ci sp]
+41.3 +22.0 33 +49 +63 опасность
перегрева
1009.7 1003.5
18 20.06 ЮВ 2 10 км 4/0
[Ci sp]
+42.8 +18.8 25 +46 +48 опасность
перегрева
1008.5 1002.3 +42.8
21 20.06 ЮЗ 3 10 км 5/0
[Ci sp]
+38.0 +18.2 31 +41 +41 опасность
перегрева
1008.9 1002.7
00 21.06 З 3 10 км 6/0
[Ac lent Ci sp]
+34.5 +19.6 42 +40 +40 очень
душно
1009.5 1003.3
03 21.06 ЮЗ 3 10 км 8/0
[Ac lent Ci sp]
+33.8 +20.0 44 +40 +40 очень
душно
1009.3 1003.1
06 21.06 ЮЗ 5 10 км 6/0
[Ac lent Ci sp]
+32.4 +22.9 57 +42 +42 опасность
перегрева
1010.5 1004.3 +32.2
09 21.06 ЮЗ 5 10 км 6/0
[Ci sp]
+33.8 +22.6 52 +43 +47 опасность
перегрева
1013.0 1006.0
12 21.06 ЮЗ 5 10 км 6/0
[Ci sp]
+37.8 +20.6 37 +44 +53 опасность
перегрева
1012.2 1006.0
15 21.06 ЮЗ 3 10 км 8/0
[Ci sp]
+40.2 +19.3 30 +45 +55 опасность
перегрева
1010.0 1003.8
18 21.06 ЮЗ 2 10 км 9/0
[Ac lent Ci sp]
+39.4 +17.9 29 +43 +44 опасность
перегрева
1009.4 1003.2 +41.2
21 21.06 ЮЗ 2 10 км 8/0
[Ac trans Ci sp]
+36.7 +20.3 39 +43 +43 опасность
перегрева
1010.7 1004.5
00 22.06 З 2 10 км 6/0
[Ac lent Ci sp]
+34.5 +20.5 44 +41 +41 опасность
перегрева
1010.7 1004.5
03 22.06 ЮЗ 5 10 км 4/0
[Ci sp]
+34.6 +23.2 52 +45 +45 опасность
перегрева
1010.5 1004.3
06 22.06 З 6 10 км 5/0
[Ac lent Ci sp]
+31.7 +21.6 55 +40 +40 очень
душно
1012.0 1005.8 +31.6
09 22.06 З 6 10 км 5/0
[Ci sp]
+33.4 +22.3 52 +42 +45 опасность
перегрева
1013.5 1007.2
12 22.06 З 6 10 км 5/0
[Ci sp]
+38.0 +20.8 37 +44 +51 опасность
перегрева
1012.7 1006.5
15 22.06 З 6 10 км 6/0
[Ci sp]
+41.2 +20.3 30 +47 +52 опасность
перегрева
1010.6 1004.4
18 22.06 З 6 10 км 6/0
[Ci sp]
+40.5 +19.7 30 +45 +46 опасность
перегрева
1008.3 1001.2 +43.0
21 22.06 З 2 10 км 8/0
[Ac lent Ci sp]
+36.4 +20.6 40 +43 +43 опасность
перегрева
1009.9 1003.7
00 23.06 ЮВ 8 10 км 8/0
[Ac lent Ci sp]
+34.0 +21.0 47 +41 +41 опасность
перегрева
1012.6 1006.4
03 23.06 Ю 6 10 км 8/0
[Ac lent Ci sp]
+28.4 +23.2 73 +38 +38 очень
душно
1012.2 1005.9
06 23.06 ЮЗ 3 10 км 5/0
[Ci sp]
+28.0 +22.1 70 +36 +36 очень
душно
1013.2 1006.9 +28.0
09 23.06 З 3 10 км 8/0
[Ac lent Ci sp]
+29.4 +21.1 61 +37 +40 очень
душно
1013.6 1007.3
12 23.06 З 6 10 км 8/0
[Ac trans Ci sp]
+36.0 +21.2 42 +43 +48 опасность
перегрева
1012.1 1005.8
15 23.06 З 5 10 км 9/0
[Ac lent Ci sp]
+39.8 +20.3 33 +46 +50 опасность
перегрева
1009.8 1003.5
18 23.06 З 5 10 км 9/0
[Ac lent Ci sp]
+40.0 +13.4 21 +40 +41 очень
душно
1008.9 1002.6 +40.4
21 23.06 З 3 10 км 8/0
[Ac lent Ci sp]
+35.4 +16.1 32 +38 +38 очень
душно
1010.4 1004.1
00 24.06 ЮЗ 4 10 км 8/0
[Ac lent Ci sp]
+33.4 +19.7 45 +39 +39 очень
душно
1011.0 1004.8
03 24.06 ЮЗ 5 10 км 8/0
[Ac trans Ci sp]
+31.6 +19.4 48 +37 +37 очень
душно
1010.1 1003.8
06 24.06 ЮЗ 5 10 км 8/0
[Ci sp]
+29.4 +20.6 59 +36 +36 очень
душно
1010.5 1004.3 +29.4
09 24.06 З 6 10 км 6/0
[Ci sp]
+31.7 +22.4 58 +41 +44 опасность
перегрева
1011.8 1005.5
12 24.06 З 4 10 км 5/0
[Ci fib]
+37.3 +16.1 29 +39 +52 опасность
солнечного
удара
1010.8 1004.6
15 24.06 СВ 2 10 км 3/0
[Ci sp]
+42.1 +11.9 17 +41 +56 опасность
перегрева
1008.2 1002.0

 

Местоположение метеостанции Каес (Мали): широта 14.43 долгота -11.43 высота над уровнем моря 47 м.

В архиве по умолчанию представлена погода в Каесе за последнюю неделю. Архивные данные за месяц целиком и за предыдущие месяцы, начиная с января 2011 года, Вы можете получить, выбрав интересующий диапазон дат из раскрывающегося списка и нажав кнопку "Ввод!".


*Определитесь, кто Вы:
робот инопланетянин человек

Внимание! Время в таблицах - всемирное. Для получения местного времени необходимо прибавить поправку, которая равна 0 ч.

Смотрите также архив погоды в соседних городах и на ближайших метеорологических станциях:

Погода в Йелимане (Мали) (121 км)
Погода в Кеньебе (Мали) (177 км)
Погода в Фатото (Гамбия) (221 км)
Погода в Кедугу (Сенегал) (223 км)
Погода в Матаме (Сенегал) (238 км)
Погода в Ниоро-Дю-Сахель (Мали) (241 км)
Погода в Киффе (Мавритания) (245 км)
Погода в Тамбакунде (Сенегал) (254 км)
Погода в Ките (Мали) (260 км)
Погода в Каэди (Мавритания) (294 км)

Пояснения к столбцам:

Ветер - указаны скорость ветра в м/с - средняя за 10 мин, порывы в срок и между сроками (в фигурных скобках) и направление, откуда дует ветер: С - северный, СВ - северо-восточный, В - восточный, ЮВ - юго-восточный, Ю - южный, ЮЗ - юго-западный, З - западный, СЗ - северо-западный.
Видимость - горизонтальная дальность видимости в метрах или километрах. При видимости от 1 до 10 км при отсутствии осадков обычно наблюдается дымка, при ухудшении видимости до 1 км и менее - туман. В сухую погоду видимость может ухудшаться дымом, пылью или мглою.
Явления - указаны атмосферные явления, наблюдавшиеся в срок или в последний час перед сроком; фигурными скобками обозначены явления, наблюдавшиеся между сроками (за 1-3 часа до срока); квадратными скобками обозначены град или гололедные отложения с указанием их диаметра в мм.
Облачность - указаны через наклонную черту общая и нижняя облачность в баллах и высота нижней границы облаков в метрах; квадратными скобками обозначены формы облаков: Ci - перистые, Cs - перисто-слоистые, Cc - перисто-кучевые, Ac - высококучевые, As - высокослоистые, Sc - слоисто-кучевые, Ns - слоисто-дождевые, Cu - кучевые, Cb - кучево-дождевые. Подробнее классификацию облаков см. в Атласе облаков (PDF).
T - Температура воздуха - температура, измеренная на высоте 2 м над землей.
Td - Температура точки росы - температура, при понижении до которой содержащийся в воздухе водяной пар достигнет насыщения.
f - Относительная влажность воздуха - влажноcть воздуха, измеренная на высоте 2 м над землей.
Te - Эффективная температура - температура, которую ощущает одетый по сезону человек в тени. Характеристика душности погоды. При расчете учитывается влияние влажности воздуха и скорости ветра на теплоощущения человека.
Tes - Эффективная температура на солнце - температура, которую ощущает человек, с поправкой на солнечный нагрев. Характеристика знойности погоды. Зависит от высоты солнца над горизонтом, облачности и скорости ветра. Ночью, в пасмурную погоду, а также при ветре 12 м/с и более поправка равна нулю.
P - Атмосферное давление - приведенное к уровню моря атмосферное давление.
Po - Атмосферное давление - измеренное на уровне метеостанции атмосферное давление.
Tmin - Минимальная температура - минимум температуры воздуха на высоте 2 м над землей.
Tmax - Максимальная температура - максимум температуры воздуха на высоте 2 м над землей.
R - Количество осадков - Количество выпавших осадков за период времени, мм. При наведении курсора мыши на число - период времени, за который выпало указанное количество осадков.
R24 - Количество осадков - Количество выпавших осадков за 24 часа, мм.
S - Снежный покров - Высота снежного покрова, см. При наведении курсора мыши на число - состояние снежного покрова и степень покрытия местности в баллах.